�������l�o���
Date,Time,MP-1(��Sv/h),MP-2(��Sv/h),MP-3(��Sv/h),MP-4(��Sv/h),MP-5(��Sv/h),MP-6(��Sv/h),MP-7(��Sv/h),MP-8(��Sv/h),����,����(m/s),���J
2018/08/18,00:00,0.842,1.245,0.871,1.565,1.127,0.473,0.831,0.786,�k�k��,5.2,��
2018/08/18,00:10,0.841,1.244,0.872,1.564,1.129,0.473,0.830,0.788,�k�k��,6.5,��
2018/08/18,00:20,0.841,1.244,0.872,1.563,1.128,0.473,0.831,0.788,�k�k��,6.3,��
2018/08/18,00:30,0.842,1.244,0.872,1.562,1.124,0.473,0.830,0.786,�k�k��,6.2,��
2018/08/18,00:40,0.844,1.246,0.873,1.564,1.127,0.472,0.831,0.787,�k��,5.7,��
2018/08/18,00:50,0.842,1.244,0.872,1.566,1.126,0.473,0.830,0.786,�k��,5.9,��
2018/08/18,01:00,0.842,1.245,0.872,1.563,1.125,0.473,0.832,0.787,�k�k��,5.8,��
2018/08/18,01:10,0.843,1.244,0.871,1.563,1.127,0.472,0.832,0.784,�k�k��,6.3,��
2018/08/18,01:20,0.843,1.244,0.873,1.563,1.128,0.473,0.830,0.788,�k�k��,6.0,��
2018/08/18,01:30,0.843,1.247,0.870,1.564,1.123,0.471,0.829,0.787,�k�k��,6.1,��
2018/08/18,01:40,0.841,1.243,0.870,1.563,1.126,0.472,0.830,0.785,�k�k��,5.2,��
2018/08/18,01:50,0.840,1.248,0.872,1.566,1.127,0.474,0.831,0.785,�k�k��,4.9,��
2018/08/18,02:00,0.840,1.245,0.872,1.565,1.126,0.473,0.831,0.787,�k�k��,5.2,��
2018/08/18,02:10,0.841,1.245,0.873,1.567,1.125,0.472,0.829,0.787,�k�k��,5.4,��
2018/08/18,02:20,0.842,1.245,0.871,1.566,1.125,0.471,0.832,0.786,�k�k��,6.1,��
2018/08/18,02:30,0.843,1.245,0.873,1.563,1.126,0.474,0.830,0.785,�k�k��,6.7,��
2018/08/18,02:40,0.843,1.243,0.873,1.566,1.124,0.472,0.831,0.787,�k�k��,7.3,��
2018/08/18,02:50,0.842,1.241,0.873,1.566,1.125,0.474,0.833,0.786,�k�k��,5.0,��
2018/08/18,03:00,0.841,1.247,0.872,1.568,1.125,0.472,0.832,0.787,�k,4.1,��
2018/08/18,03:10,0.841,1.242,0.872,1.567,1.126,0.473,0.832,0.786,�k�k��,4.9,��
2018/08/18,03:20,0.843,1.246,0.872,1.567,1.126,0.472,0.830,0.786,�k�k��,4.1,��
2018/08/18,03:30,0.842,1.245,0.872,1.564,1.124,0.473,0.830,0.785,�k,4.3,��
2018/08/18,03:40,0.842,1.242,0.871,1.566,1.124,0.471,0.829,0.786,�k,4.6,��
2018/08/18,03:50,0.842,1.244,0.873,1.565,1.124,0.472,0.831,0.785,�k,4.2,��
2018/08/18,04:00,0.843,1.245,0.871,1.564,1.125,0.470,0.830,0.788,�k,4.4,��
2018/08/18,04:10,0.842,1.241,0.871,1.566,1.128,0.471,0.829,0.785,�k�k��,4.2,��
2018/08/18,04:20,0.841,1.245,0.871,1.563,1.124,0.472,0.829,0.786,�k�k��,3.9,��
2018/08/18,04:30,0.842,1.241,0.869,1.564,1.123,0.472,0.830,0.786,�k�k��,3.6,��
2018/08/18,04:40,0.840,1.242,0.869,1.561,1.124,0.472,0.829,0.786,�k�k��,2.9,��
2018/08/18,04:50,0.840,1.242,0.870,1.565,1.123,0.472,0.830,0.785,�k��,1.2,��
2018/08/18,05:00,0.841,1.243,0.871,1.568,1.127,0.473,0.829,0.786,���k��,2.0,��
2018/08/18,05:10,0.841,1.242,0.871,1.564,1.125,0.471,0.830,0.787,�k��,2.3,��
2018/08/18,05:20,0.841,1.244,0.873,1.563,1.122,0.471,0.829,0.784,�k��,2.6,��
2018/08/18,05:30,0.841,1.245,0.869,1.564,1.123,0.473,0.828,0.785,�k��,2.5,��
2018/08/18,05:40,0.842,1.242,0.871,1.566,1.124,0.472,0.829,0.785,���k��,2.5,��
2018/08/18,05:50,0.842,1.243,0.871,1.566,1.122,0.472,0.830,0.785,���k��,2.0,��
2018/08/18,06:00,0.843,1.245,0.870,1.564,1.125,0.472,0.830,0.786,���k��,1.7,��
2018/08/18,06:10,0.842,1.244,0.871,1.565,1.125,0.472,0.831,0.786,��,1.7,��
2018/08/18,06:20,0.842,1.245,0.871,1.566,1.125,0.471,0.831,0.786,���k��,1.5,��
2018/08/18,06:30,0.843,1.244,0.873,1.565,1.125,0.473,0.830,0.786,���k��,1.9,��
2018/08/18,06:40,0.842,1.243,0.873,1.568,1.126,0.473,0.831,0.786,���k��,1.1,��
2018/08/18,06:50,0.840,1.242,0.872,1.566,1.124,0.474,0.830,0.787,��,1.5,��
2018/08/18,07:00,0.843,1.241,0.871,1.567,1.125,0.473,0.833,0.788,���쐼,1.2,��
2018/08/18,07:10,0.844,1.243,0.872,1.565,1.124,0.469,0.831,0.787,���쐼,0.6,��
2018/08/18,07:20,0.843,1.239,0.872,1.562,1.124,0.471,0.832,0.787,���k��,0.9,��
2018/08/18,07:30,0.843,1.242,0.870,1.564,1.124,0.473,0.830,0.787,��,1.5,��
2018/08/18,07:40,0.846,1.240,0.875,1.568,1.126,0.472,0.833,0.788,��쐼,1.1,��
2018/08/18,07:50,0.845,1.242,0.874,1.567,1.127,0.472,0.831,0.789,��,1.7,��
2018/08/18,08:00,0.844,1.242,0.874,1.565,1.125,0.472,0.832,0.789,���k��,1.4,��
2018/08/18,08:10,0.845,1.240,0.872,1.569,1.126,0.472,0.833,0.787,�k,1.7,��
2018/08/18,08:20,0.843,1.243,0.874,1.567,1.127,0.472,0.832,0.787,�k��,2.0,��
2018/08/18,08:30,0.845,1.243,0.876,1.565,1.127,0.471,0.832,0.785,�k�k��,2.0,��
2018/08/18,08:40,0.844,1.243,0.874,1.569,1.126,0.472,0.832,0.784,�k��,2.3,��
2018/08/18,08:50,0.841,1.244,0.873,1.567,1.126,0.472,0.830,0.786,���k��,2.5,��
2018/08/18,09:00,0.842,1.247,0.872,1.568,1.127,0.473,0.830,0.784,���k��,3.0,��
2018/08/18,09:10,0.843,1.246,0.872,1.568,1.125,0.472,0.830,0.784,���k��,2.8,��
2018/08/18,09:20,0.844,1.246,0.872,1.566,1.125,0.474,0.830,0.786,�k��,3.1,��
2018/08/18,09:30,0.844,1.245,0.872,1.569,1.123,0.474,0.830,0.785,���k��,3.1,��
2018/08/18,09:40,0.844,1.248,0.873,1.565,1.128,0.474,0.830,0.785,���k��,3.8,��
2018/08/18,09:50,0.844,1.246,0.873,1.569,1.126,0.474,0.831,0.785,���k��,3.5,��
2018/08/18,10:00,0.842,1.249,0.873,1.566,1.129,0.474,0.830,0.786,���k��,3.8,��
2018/08/18,10:10,0.846,1.247,0.872,1.568,1.130,0.473,0.830,0.784,���k��,3.9,��
2018/08/18,10:20,0.845,1.245,0.873,1.568,1.129,0.476,0.831,0.786,�k��,3.9,��
2018/08/18,10:30,0.845,1.249,0.875,1.567,1.131,0.472,0.829,0.787,�k��,4.7,��
2018/08/18,10:40,0.846,1.249,0.875,1.569,1.130,0.473,0.831,0.785,���k��,4.3,��
2018/08/18,10:50,0.846,1.249,0.873,1.567,1.130,0.474,0.833,0.785,���k��,4.2,��
2018/08/18,11:00,0.844,1.249,0.874,1.571,1.127,0.473,0.833,0.787,��,4.1,��
2018/08/18,11:10,0.846,1.250,0.874,1.569,1.131,0.473,0.833,0.786,��,4.2,��
2018/08/18,11:20,0.846,1.250,0.875,1.564,1.132,0.474,0.831,0.786,���k��,3.6,��
2018/08/18,11:30,0.847,1.249,0.875,1.566,1.133,0.474,0.833,0.787,���k��,3.9,��
2018/08/18,11:40,0.847,1.249,0.875,1.568,1.134,0.473,0.832,0.786,��,3.6,��
2018/08/18,11:50,0.848,1.249,0.876,1.567,1.133,0.474,0.831,0.785,��,4.1,��
2018/08/18,12:00,0.849,1.252,0.875,1.565,1.133,0.474,0.831,0.787,���k��,4.0,��
2018/08/18,12:10,0.847,1.250,0.878,1.567,1.134,0.472,0.832,0.785,��,4.2,��
2018/08/18,12:20,0.846,1.252,0.876,1.567,1.133,0.473,0.833,0.787,��,3.5,��
2018/08/18,12:30,0.849,1.254,0.876,1.566,1.133,0.473,0.832,0.786,��,3.8,��
2018/08/18,12:40,0.848,1.251,0.877,1.568,1.132,0.472,0.831,0.786,��,3.7,��
2018/08/18,12:50,0.847,1.250,0.877,1.570,1.135,0.474,0.833,0.786,��,3.9,��
2018/08/18,13:00,0.849,1.253,0.877,1.567,1.136,0.474,0.832,0.785,��,3.5,��
2018/08/18,13:10,0.846,1.253,0.877,1.565,1.134,0.473,0.833,0.787,���쓌,4.1,��
2018/08/18,13:20,0.848,1.250,0.876,1.568,1.134,0.473,0.832,0.786,���쓌,3.7,��
2018/08/18,13:30,0.849,1.250,0.877,1.567,1.136,0.474,0.831,0.786,���쓌,3.4,��
2018/08/18,13:40,0.848,1.252,0.875,1.571,1.134,0.472,0.831,0.786,���쓌,3.7,��
2018/08/18,13:50,0.847,1.252,0.879,1.568,1.136,0.475,0.832,0.786,�쓌,3.7,��
2018/08/18,14:00,0.848,1.253,0.876,1.574,1.135,0.475,0.833,0.788,�쓌,3.7,��
2018/08/18,14:10,0.850,1.253,0.878,1.571,1.136,0.474,0.832,0.785,�쓌,3.9,��
2018/08/18,14:20,0.850,1.253,0.881,1.572,1.137,0.475,0.834,0.787,���쓌,3.8,��
2018/08/18,14:30,0.847,1.252,0.877,1.570,1.137,0.475,0.831,0.787,�쓌,3.8,��
2018/08/18,14:40,0.849,1.253,0.880,1.571,1.137,0.473,0.832,0.787,���쓌,3.9,��
2018/08/18,14:50,0.850,1.252,0.875,1.571,1.136,0.473,0.832,0.785,�쓌,3.7,��
2018/08/18,15:00,0.846,1.252,0.879,1.570,1.135,0.472,0.833,0.788,�쓌,3.3,��
2018/08/18,15:10,0.848,1.254,0.880,1.569,1.134,0.472,0.832,0.786,���쓌,4.1,��
2018/08/18,15:20,0.848,1.252,0.880,1.571,1.137,0.473,0.832,0.787,�쓌,3.9,��
2018/08/18,15:30,0.850,1.253,0.880,1.570,1.137,0.472,0.832,0.788,�쓌,4.0,��
2018/08/18,15:40,0.850,1.253,0.880,1.570,1.138,0.474,0.831,0.786,���쓌,4.2,��
2018/08/18,15:50,0.848,1.253,0.878,1.570,1.137,0.472,0.833,0.787,��쓌,3.6,��
2018/08/18,16:00,0.849,1.253,0.879,1.570,1.138,0.473,0.833,0.786,���쓌,3.9,��
2018/08/18,16:10,0.850,1.254,0.878,1.570,1.135,0.471,0.832,0.786,��쓌,3.2,��
2018/08/18,16:20,0.847,1.253,0.876,1.572,1.137,0.474,0.834,0.786,��쓌,3.4,��
2018/08/18,16:30,0.846,1.254,0.878,1.572,1.140,0.473,0.832,0.785,��쓌,4.1,��
2018/08/18,16:40,0.851,1.255,0.877,1.572,1.137,0.475,0.832,0.785,��쓌,3.7,��
2018/08/18,16:50,0.848,1.255,0.879,1.570,1.136,0.473,0.831,0.786,��쓌,4.1,��
2018/08/18,17:00,0.849,1.258,0.880,1.571,1.136,0.474,0.832,0.786,��쓌,4.4,��
2018/08/18,17:10,0.848,1.257,0.880,1.570,1.136,0.477,0.831,0.787,��쓌,5.0,��
2018/08/18,17:20,0.849,1.257,0.880,1.573,1.138,0.475,0.831,0.789,��쓌,5.1,��
2018/08/18,17:30,0.849,1.257,0.880,1.572,1.137,0.476,0.832,0.789,��쓌,5.3,��
2018/08/18,17:40,0.850,1.257,0.879,1.573,1.137,0.476,0.832,0.789,��쓌,4.8,��
2018/08/18,17:50,0.850,1.259,0.881,1.573,1.139,0.477,0.833,0.788,��,4.5,��
2018/08/18,18:00,0.851,1.257,0.881,1.576,1.137,0.475,0.833,0.789,��쓌,4.0,��
2018/08/18,18:10,0.851,1.254,0.881,1.573,1.138,0.473,0.833,0.789,��쓌,4.6,��
2018/08/18,18:20,0.851,1.256,0.881,1.575,1.137,0.476,0.833,0.789,��,4.9,��
2018/08/18,18:30,0.851,1.256,0.880,1.573,1.136,0.475,0.834,0.791,��,6.4,��
2018/08/18,18:40,0.849,1.255,0.880,1.572,1.139,0.475,0.834,0.791,��,6.2,��
2018/08/18,18:50,0.850,1.257,0.881,1.576,1.139,0.475,0.833,0.789,��,5.7,��
2018/08/18,19:00,0.849,1.258,0.881,1.575,1.138,0.477,0.833,0.789,��,5.8,��
2018/08/18,19:10,0.851,1.258,0.881,1.576,1.138,0.476,0.834,0.788,��,5.7,��
2018/08/18,19:20,0.847,1.258,0.882,1.577,1.143,0.476,0.833,0.788,��,5.6,��
2018/08/18,19:30,0.850,1.257,0.881,1.573,1.137,0.474,0.833,0.787,��,6.8,��
2018/08/18,19:40,0.849,1.258,0.879,1.574,1.139,0.476,0.834,0.790,��쐼,6.8,��
2018/08/18,19:50,0.848,1.260,0.881,1.577,1.140,0.476,0.833,0.790,��쐼,6.9,��
2018/08/18,20:00,0.848,1.256,0.880,1.575,1.138,0.475,0.834,0.787,��쐼,6.9,��
2018/08/18,20:10,0.850,1.257,0.881,1.575,1.141,0.476,0.834,0.789,��쐼,7.3,��
2018/08/18,20:20,0.850,1.257,0.881,1.573,1.138,0.477,0.835,0.789,��쐼,7.0,��
2018/08/18,20:30,0.851,1.256,0.881,1.574,1.139,0.474,0.834,0.789,��쐼,6.6,��
2018/08/18,20:40,0.851,1.256,0.880,1.573,1.139,0.474,0.833,0.789,��쐼,6.2,��
2018/08/18,20:50,0.850,1.256,0.879,1.575,1.137,0.475,0.833,0.790,��쐼,5.3,��
2018/08/18,21:00,0.850,1.256,0.881,1.575,1.139,0.475,0.833,0.788,��쐼,5.2,��
2018/08/18,21:10,0.851,1.251,0.881,1.574,1.142,0.476,0.834,0.788,��쐼,5.1,��
2018/08/18,21:20,0.851,1.257,0.880,1.573,1.139,0.475,0.833,0.788,��쐼,5.2,��
2018/08/18,21:30,0.851,1.255,0.879,1.577,1.141,0.476,0.834,0.789,��쐼,5.4,��
2018/08/18,21:40,0.850,1.254,0.881,1.574,1.141,0.476,0.834,0.790,��쐼,5.5,��
2018/08/18,21:50,0.850,1.257,0.881,1.573,1.139,0.476,0.832,0.789,��쐼,5.5,��
2018/08/18,22:00,0.852,1.256,0.880,1.576,1.140,0.475,0.835,0.790,��쐼,5.8,��
2018/08/18,22:10,0.851,1.258,0.881,1.574,1.139,0.475,0.835,0.789,��쐼,6.2,��
2018/08/18,22:20,0.849,1.257,0.881,1.576,1.141,0.476,0.835,0.787,��쐼,5.6,��
2018/08/18,22:30,0.852,1.256,0.880,1.575,1.139,0.476,0.834,0.788,��쐼,5.4,��
2018/08/18,22:40,0.851,1.256,0.880,1.574,1.138,0.475,0.833,0.789,��쐼,5.3,��
2018/08/18,22:50,0.852,1.255,0.880,1.575,1.139,0.477,0.832,0.788,��쐼,4.9,��
2018/08/18,23:00,0.850,1.254,0.881,1.572,1.139,0.474,0.834,0.788,��쐼,4.9,��
2018/08/18,23:10,0.850,1.256,0.880,1.575,1.140,0.476,0.832,0.788,��쐼,4.7,��
2018/08/18,23:20,0.852,1.257,0.878,1.575,1.139,0.476,0.833,0.788,��쐼,5.0,��
2018/08/18,23:30,0.850,1.256,0.880,1.574,1.137,0.476,0.834,0.789,��쐼,4.6,��
2018/08/18,23:40,0.850,1.255,0.881,1.576,1.139,0.476,0.834,0.790,��쐼,4.8,��
2018/08/18,23:50,0.851,1.257,0.880,1.576,1.140,0.476,0.835,0.789,��쐼,4.3,��
